Weather in Yerkovtsy

Russia / Amur Oblast     50°28′37″N   128°25′29″E
temp.,
°C
wind,
m/s
gust,
m/s
humid.,
%
clouds,
%
prec.,
mm/h
press.,
hPa
HPBL,
m
9 march, tue
tue900:00−3ssw61189100 0.0 1008333
03:00−4sw4890100 0.1 1005225
06:00−8wnw349394 0.0 100473
09:00−8nnw9149297 1.4 1007526
12:00−8nnw9158398 0.0 1011803
15:00−4nnw9157980 0.0 10151096
18:00−5nw7157945 0.0 1019666
21:00−8nw5148223 0.0 1022306
10 march, wed
wed1000:00−11nw48860 0.0 1025123
03:00−13w33870 0.0 102520
06:00−13ssw348134 0.0 102536
09:00−9s6108065 0.0 1023272
12:00−5ssw81480100 0.0 1020680
15:00−2ssw81275100 0.0 10161126
18:00−2wsw498398 0.1 1016434
21:00−6w4108678 0.1 1018155
11 march, thu
thu1100:00−7nw5138929 0.0 1021349
03:00−10nw4108815 0.0 1025167
06:00−13nw45830 0.0 102885
09:00−11nw37830 0.0 1030249
12:00−7w34760 0.0 1030324
15:00−4sw34780 0.0 1028415
18:00−8s34850 0.0 102838
21:00−10s34860 0.0 102938
12 march, fri
fri1200:00−10s34860 0.0 102935
03:00−10s349035 0.0 102959
06:00−11s33900 0.0 102923
09:00−8s34910 0.0 1028123
12:00−4s57910 0.0 1027293
15:000ssw611870 0.0 1024494
18:000sw511810 0.0 1022244
21:00−3sw58800 0.0 1023132
13 march, sat
sat1300:00−4ssw510770 0.0 1022156
03:00−3sw614730 0.0 1021271
06:00−4ssw714720 0.0 1019250
09:00−3sw815731 0.0 1018404
12:00+1sw6148018 0.0 1016580
15:00+1ssw5118950 0.0 1014370
18:000ssw4883100 0.0 1014136
21:00−4s488455 0.0 1014113